Location: Cabanac
(43.2707°N, 0.2288°E)
Time: 21:15:26
(UTC+00:00)

Daily predictions for brighter satellites

Satellite Brightness Start Highest point End
(mag) Time Altitude Azimuth Time Altitude Azimuth Time Altitude Azimuth
ATLAS 5 CENTAUR R/B 2.6 19:42:12 10° NW 19:47:18 64° WSW 19:53:34 10° SSE
CSL-04 Rocket 3.7 19:42:12 10° SSE 19:47:29 72° ENE 19:52:45 10° N
Cosmos 2344 4.5 19:42:33 10° NNW 19:50:47 57° NE 20:02:01 10° SE
CSL-04 Debris 4.2 19:45:52 10° SSE 19:51:20 84° ENE 19:56:51 10° NNW
Resurs 01 Rocket 1.7 19:49:09 10° SSE 19:53:35 84° ENE 19:58:03 10° NNW
USA 186 2.3 19:51:31 10° S 19:54:35 58° W 19:57:44 10° NNW
Cosmos 2237 Rocket 2.3 19:50:48 10° SSW 19:56:30 88° ESE 20:02:15 10° NNE
BREEZE-M DEB (TANK) 2.4 19:53:14 10° SW 19:58:09 63° SSE 20:00:25 10° ENE
Cosmos 1238 Rocket 4.4 19:54:20 10° SSW 19:59:30 60° W 20:05:14 10° N
USA 308 2.2 19:57:14 10° NW 19:59:41 53° NE 20:02:49 10° ESE
Cosmos 1378 4.3 19:57:16 10° SE 19:59:44 20° E 20:02:13 10° NE
Cosmos 2151 4.5 19:56:13 10° NNW 20:00:03 37° W 20:03:51 10° SSW
BREEZE-M DEB (TANK) 3.3 19:58:00 10° SW 20:01:06 52° SSE 20:07:27 10° ENE
ATLAS 3B R/B 3.6 19:54:34 10° NNW 20:02:07 47° NE 20:09:33 10° ESE
Cosmos 1980 4.0 19:59:00 10° SSW 20:04:38 76° WNW 20:10:19 10° NNE
Cosmos 923 Rocket 4.3 20:00:35 10° S 20:05:37 46° ESE 20:10:42 10° NNE
Meteor 2-14 Rocket 4.5 20:00:06 10° S 20:06:14 81° E 20:12:24 10° N
SPOT 5 3.6 20:02:39 10° SE 20:06:52 34° ENE 20:10:56 10° N
Aureole 2 3.9 20:05:28 10° NNW 20:08:23 87° ENE 20:11:15 10° SSE
GEOS 3 Rocket 4.4 20:05:28 10° ENE 20:09:49 27° ESE 20:14:05 10° S
Meteor 2-2 Rocket 4.4 20:04:56 10° S 20:10:52 64° E 20:16:49 10° NNE
Cosmos 1464 Rocket 4.1 20:07:31 10° N 20:13:49 68° E 20:20:00 10° SSE
Okean O Rocket 2.0 20:11:04 10° S 20:15:28 67° WSW 20:19:54 10° NNW
Terra 3.2 20:13:57 11° ESE 20:17:32 24° ENE 20:21:19 10° NNE
ERS-1 Rocket 3.9 20:18:56 12° SE 20:22:58 34° ENE 20:27:28 10° N
MOS 1 4.4 20:17:55 10° SSE 20:23:33 70° ENE 20:29:12 10° N
ATLAS 2AS CENTAUR R/B 3.4 20:16:22 10° SW 20:23:44 66° NW 20:30:51 10° NNE
Cosmos 1782 3.0 20:24:27 10° SSW 20:28:14 69° W 20:32:03 10° N
USA 281 4.2 20:27:32 11° ESE 20:32:56 33° NE 20:38:40 10° N
Cosmos 1943 Rocket 2.5 20:30:01 10° NNW 20:35:37 66° WSW 20:41:01 11° S
Cosmos 1420 Rocket 4.4 20:31:26 10° NNW 20:36:37 52° ENE 20:40:30 17° SE
Cosmos 972 4.4 20:33:41 10° SSW 20:38:35 89° WNW 20:43:32 10° NNE
ISS -1.2 20:36:35 10° NW 20:39:03 19° N 20:41:32 10° NE
Cosmos 1743 3.9 20:36:53 10° NNE 20:39:56 25° ENE 20:41:25 19° ESE
Cosmos 2278 Rocket 3.5 20:35:11 10° NW 20:40:17 35° WSW 20:45:21 10° S
NOSS 3-1 (A) 4.2 20:33:28 10° NW 20:40:55 78° NE 20:48:11 17° SE
NOSS 3-1 (C) 4.5 20:33:42 10° NW 20:41:12 66° WSW 20:49:24 13° SSE
OAO 2 Rocket 4.3 20:37:39 10° WSW 20:42:19 32° S 20:45:09 19° SE
USA 245 3.2 20:42:40 24° E 20:43:00 25° ENE 20:44:56 10° NNE
SL-24 R/B - RUBIN 2 4.4 20:38:10 10° SSW 20:44:10 78° ESE 20:50:48 10° NE
Cosmos 2297 4.3 20:42:07 10° NNW 20:47:38 45° ENE 20:51:24 19° ESE
Cosmos 2112 Rocket 4.0 20:42:42 10° S 20:47:58 68° ESE 20:53:16 10° NNE
Cosmos 1634 Rocket 4.5 20:42:33 10° N 20:48:33 44° ENE 20:52:38 20° SE
Okean-O 3.2 20:45:59 10° S 20:50:18 54° W 20:54:38 10° NNW
USA 290 2.1 20:48:50 10° NNW 20:52:04 80° ENE 20:53:34 29° SSE
Cosmos 1766 Rocket 4.0 20:48:54 10° N 20:53:11 46° ENE 20:55:32 24° SE
Spot 2 Rocket 3.8 20:54:06 22° SE 20:57:11 52° ENE 21:02:05 10° N
Cosmos 2034 Rocket 4.0 20:51:22 10° N 20:57:36 84° W 21:03:13 13° S
Cosmos 1680 Rocket 3.6 20:52:56 10° SSW 20:58:13 83° WNW 21:03:32 10° NNE
Cosmos 1726 3.8 20:56:35 10° NE 20:58:24 14° ENE 20:58:35 14° ENE
Meteor 2-6 Rocket 4.4 20:58:32 19° SSE 21:02:25 50° E 21:07:45 10° NNE
USA 32 4.0 21:01:10 19° SSE 21:04:55 64° E 21:10:05 10° N
Gbstr 26 Del rocket 4.4 20:59:58 10° WNW 21:05:34 39° SW 21:08:23 21° S
Tsikada Rocket 3.9 21:01:05 10° S 21:07:15 84° E 21:13:30 10° N
SL-16 R/B 2.4 21:07:58 10° SSW 21:13:37 74° WNW 21:19:19 10° NNE
USA 276 3.5 21:12:50 10° NW 21:14:39 21° NNE 21:15:14 19° NE
Helios 1B 4.5 21:11:07 10° NNE 21:15:26 72° ESE 21:17:56 24° S
MOS 1 Rocket 3.6 21:13:57 29° SE 21:16:24 60° ENE 21:21:33 10° N
Ariane Rocket 2.9 21:16:49 28° SSE 21:19:34 82° ENE 21:24:41 10° NNW
Lacrosse 5 rocket 3.2 21:16:05 10° W 21:20:01 35° NNW 21:23:56 10° NE
Cosmos 2056 Rocket 3.6 21:15:10 10° NNW 21:20:35 81° WSW 21:23:29 28° SSE
Lacrosse 5 2.0 21:15:44 10° NW 21:20:49 68° SW 21:23:08 32° SSE
Cosmos 1536 4.0 21:18:25 10° NNE 21:21:43 26° ENE 21:22:15 25° E
Cosmos 1624 Rocket 4.0 21:17:42 10° NNW 21:22:55 79° WSW 21:25:36 29° S
Cosmos 44 3.1 21:20:07 10° NW 21:24:57 87° WSW 21:26:45 37° SSE
Cosmos 2221 3.1 21:22:26 13° SSW 21:26:09 55° W 21:30:24 10° N
Spot 1 4.0 21:22:28 10° NNE 21:26:28 56° ESE 21:27:36 41° SSE
Cosmos 2369 Rocket 2.2 21:24:17 10° NNW 21:29:53 72° ENE 21:32:23 34° SE
USA 308 4.3 21:29:05 10° W 21:31:01 17° SW 21:31:01 17° SW
Cosmos 2084 3.0 21:29:21 10° NW 21:33:07 77° NE 21:33:53 54° ESE
FALCON 9 R/B 3.8 21:28:05 10° WSW 21:33:59 51° S 21:54:14 10° ESE
Cosmos 921 Rocket 3.5 21:37:33 15° SSW 21:41:11 60° WNW 21:45:38 10° N
Okean 3 Rocket 3.5 21:42:29 10° N 21:46:55 85° W 21:48:05 48° S
GEOS 3 Rocket 4.3 21:42:58 10° NNE 21:48:02 55° NW 21:53:00 10° WSW
ATLAS 3B R/B 3.5 21:45:32 10° NW 21:53:00 49° WSW 21:57:02 27° S
SL-8 R/B 3.5 21:48:17 10° SW 21:53:01 73° SSE 21:57:46 10° ENE
Landsat 5 3.2 21:50:23 10° N 21:54:09 76° WNW 21:54:55 54° SW
Terra 2.9 21:52:38 24° SSW 21:54:55 38° W 21:59:19 10° NNW
Cosmos 1943 3.1 21:53:56 29° SSW 21:56:57 80° ESE 22:02:38 10° NNE
Cosmos 1500 Rocket 3.8 21:53:21 10° N 21:57:35 51° ENE 21:57:58 49° E
Cosmos 1733 4.2 21:57:24 10° N 22:00:07 32° ENE 22:00:07 32° ENE
Cosmos 1048 Rocket 3.9 21:59:00 32° SSW 22:01:26 85° WNW 22:06:36 10° NNE
ERS-1 Rocket 4.4 21:58:52 18° SW 22:01:41 30° W 22:06:06 10° NW
H-2A R/B 4.1 22:02:30 21° ENE 22:02:52 22° ENE 22:06:04 10° NNE
Cosmos 1842 Rocket 4.2 22:01:41 30° SW 22:03:35 53° W 22:07:56 10° N
Cosmos 494 Rocket 4.4 22:00:56 18° SW 22:04:41 58° WNW 22:09:44 10° NNE
Meteor 1-10 Rocket 4.2 22:02:23 34° SSW 22:05:04 84° W 22:10:47 10° N
Cosmos 1805 Rocket 3.8 22:02:13 10° N 22:06:31 53° E 22:06:48 52° E
Cosmos 1656 Rocket 4.3 22:01:41 10° NW 22:06:51 44° WSW 22:08:45 32° SSW
SPOT 3 Rocket 4.4 22:04:43 27° SSW 22:06:56 41° W 22:11:48 10° NNW
Cosmos 1151 Rocket 3.7 22:08:38 39° E 22:08:38 39° E 22:12:24 10° NNE
Meteor 2-9 Rocket 4.3 22:07:30 10° N 22:13:19 74° ENE 22:14:56 49° SSE
Meteor 1-19 Rocket 4.2 22:14:06 47° S 22:15:53 75° E 22:21:44 10° NNE
ARIANE 5 R/B 3.0 22:16:04 47° E 22:16:20 47° ENE 22:20:30 10° N
ISS -2.4 22:13:18 10° NW 22:16:23 34° NNE 22:16:32 34° NNE
Meteor 1-11 Rocket 3.7 22:10:55 10° NNW 22:16:34 82° W 22:18:13 48° S
Cosmos 1340 Rocket 3.2 22:17:22 52° ENE 22:17:22 52° ENE 22:20:47 10° NNE
USA 281 3.6 22:14:24 34° SSW 22:17:07 55° WSW 22:23:36 10° NNW
Meteor 2-10 4.1 22:12:52 10° N 22:18:30 78° E 22:19:41 55° SSE
USA 59 Rocket 2.1 22:17:59 10° N 22:21:00 21° NE 22:22:59 16° ENE
Cosmos 1331 Rocket 3.9 22:17:00 10° NNW 22:22:17 88° WSW 22:23:13 62° SSE
Cosmos 1110 Rocket 4.0 22:18:52 10° NNW 22:24:12 78° WSW 22:25:12 59° S
CZ-2C R/B 3.5 22:22:47 10° NNE 22:27:19 73° ESE 22:27:22 73° ESE
Cosmos 1726 3.8 22:29:02 10° NW 22:31:07 23° WNW 22:31:07 23° WNW
Nadezhda 4 Rocket 3.9 22:30:38 46° S 22:32:37 86° W 22:38:53 10° N
Molniya-1 4.1 22:35:26 50° SW 22:36:32 82° NW 22:45:37 10° NE
Cosmos 1805 4.0 22:37:19 10° N 22:40:09 44° NNE 22:40:09 44° NNE
IRIDIUM 106 4.2 22:39:03 10° N 22:44:17 73° E 22:44:45 68° SE
USA 229 DEB 4.4 22:39:28 10° NW 22:46:47 52° WSW 22:49:11 40° SSW
USA 229 4.3 22:39:34 10° NW 22:46:53 53° WSW 22:49:18 40° SSW
Cosmos 1743 Rocket 3.8 22:43:38 10° NNW 22:47:55 58° W 22:47:55 58° W
Sich 1 3.7 22:48:24 10° NNW 22:52:35 47° W 22:52:35 47° W
Cosmos 1975 3.4 22:54:01 10° N 22:57:09 53° NNE 22:57:09 53° NNE
Cosmos 1603 4.3 22:57:29 30° WSW 23:00:05 52° WNW 23:05:40 10° NNE
Cosmos 1626 4.0 23:04:41 23° NNE 23:04:41 23° NNE 23:06:06 10° NNE
Lacrosse 5 4.3 23:01:47 10° WSW 23:02:19 10° WSW 23:02:19 10° WSW
Cosmos 1340 4.2 23:00:11 10° NNW 23:02:14 29° NW 23:02:14 29° NW
Cosmos 1627 Rocket 4.4 23:05:12 59° S 23:06:32 90° E 23:12:54 10° N
NOSS 2-1 (C) 4.3 23:04:58 10° NNW 23:08:48 48° NE 23:09:07 47° ENE
USA 267 3.1 23:02:17 10° NE 23:08:50 73° SE 23:10:42 49° SSW
Cosmos 2369 Rocket 4.1 23:09:52 10° WNW 23:13:13 16° W 23:14:10 16° WSW
Cosmos 2026 Rocket 4.0 23:12:23 57° SSW 23:13:45 80° W 23:20:05 10° N
USA 306 3.8 23:12:14 10° NW 23:15:15 42° N 23:15:15 42° N
Cosmos 1833 Rocket 3.9 23:17:10 27° E 23:17:10 27° E 23:21:11 10° NE
NOSS 3-3 (C) 4.1 23:26:07 49° E 23:26:07 49° E 23:31:30 10° NE
Cosmos 220 Rocket 4.4 23:30:05 60° NNW 23:30:05 60° NNW 23:33:49 10° NNE
Cosmos 1515 Rocket 4.2 23:31:37 47° NE 23:31:37 47° NE 23:35:01 10° NNE
Cosmos 1328 Rocket 4.1 23:33:11 55° NW 23:33:11 55° NW 23:36:58 10° N
Meteor 1-18 Rocket 4.5 23:33:57 56° SW 23:34:56 66° WNW 23:40:52 10° N
ALOS 2 2.9 23:36:13 62° NW 23:36:13 62° NW 23:39:59 10° NNW
Spot 4 4.3 23:37:28 52° W 23:37:28 52° W 23:41:45 10° NNW
H-2A R/B 3.9 23:38:30 30° WNW 23:38:30 30° WNW 23:41:24 10° NNW
Cosmos 1553 Rocket 3.8 23:32:46 10° N 23:38:52 84° E 23:39:39 69° SSE
Cosmos 1470 Rocket 3.9 23:37:58 10° N 23:41:47 63° NNW 23:41:47 63° NNW
USA 234 3.7 23:38:50 18° ESE 23:43:45 59° NNE 23:50:10 10° NW
Meteor 2-4 Rocket 4.5 23:42:31 40° WSW 23:43:50 46° WNW 23:49:31 10° N
Lacrosse 4 Rocket 2.2 23:43:11 10° NNW 23:46:28 47° NNE 23:46:28 47° NNE
Cosmos 1818 3.4 23:53:37 86° SE 23:53:40 86° ESE 23:59:10 10° NE
Cosmos 1633 Rocket 4.3 23:51:48 10° NNW 23:55:08 34° WNW 23:55:08 34° WNW
